Location: Columbia
(38.9520°N, 92.3340°W)
Time: 09:07:29
(UTC-05:00)

SL-08 RB Rocket - Visible Passes

Search period start: 26 July 2016 00:00
Search period end: 05 August 2016 00:00
Orbit: 649 x 684 km, 98.0° (Epoch: 26 July)

Date Brightness Start Highest point End Pass type
(mag) Time Alt. Az. Time Alt. Az. Time Alt. Az.
26 Jul 3.9 22:23:16 42° SE 22:24:34 58° ENE 22:29:07 10° N visible
27 Jul 6.2 00:01:25 12° W 00:01:58 13° W 00:03:57 10° WNW visible
27 Jul 5.8 21:17:43 10° E 21:19:49 13° ENE 21:21:55 10° NE visible
27 Jul 4.0 22:55:26 52° SSW 22:56:16 63° W 23:00:53 10° NNW visible
28 Jul 5.0 21:49:27 21° ESE 21:51:13 26° ENE 21:55:04 10° NNE visible
28 Jul 5.2 23:27:36 28° WSW 23:28:08 28° W 23:32:08 10° NW visible
29 Jul 3.9 22:21:37 43° ESE 22:22:45 56° ENE 22:27:19 10° N visible
29 Jul 6.2 23:59:45 13° W 00:00:08 13° W 00:02:21 10° WNW visible
30 Jul 5.8 21:16:04 10° E 21:18:01 13° ENE 21:19:59 10° NE visible
30 Jul 3.9 22:53:47 57° SSW 22:54:28 66° W 22:59:06 10° NNW visible
31 Jul 5.0 21:47:48 21° E 21:49:25 25° ENE 21:53:13 10° NNE visible
31 Jul 5.1 23:25:56 29° WSW 23:26:18 30° W 23:30:23 10° NW visible
01 Aug 4.0 22:19:58 44° ESE 22:20:57 54° ENE 22:25:30 10° N visible
01 Aug 6.1 23:58:07 14° W 23:58:18 14° W 00:00:43 10° WNW visible
02 Aug 5.8 21:14:26 10° E 21:16:14 12° ENE 21:18:02 10° NE visible
02 Aug 3.8 22:52:08 63° SW 22:52:39 69° W 22:57:18 10° NNW visible
03 Aug 5.1 21:46:10 21° E 21:47:37 25° ENE 21:51:22 10° NNE visible
03 Aug 5.1 23:24:19 31° W 23:24:29 31° W 23:28:38 10° NNW visible
04 Aug 4.0 22:18:20 45° ESE 22:19:09 51° ENE 22:23:40 10° N visible
04 Aug 6.1 23:56:29 15° W 23:56:29 15° W 23:59:03 10° WNW visible
